Time,TemperatureF,DewpointF,PressureIn,WindDirection,WindDirectionDegrees,WindSpeedMPH,WindSpeedGustMPH,Humidity,HourlyPrecipIn,Conditions,Clouds,dailyrainin,SoftwareType,DateUTC
2013-07-22 00:02:00,62.8,46.5,29.93,North,0,0.0,-999.0,55,0.00,,,-99.99,,2013-07-22 08:02:00,
2013-07-22 00:07:00,62.7,46.7,29.93,North,0,0.0,-999.0,55,0.00,,,-99.99,,2013-07-22 08:07:00,
2013-07-22 00:12:00,62.7,46.9,29.93,North,0,0.0,-999.0,56,0.00,,,-99.99,,2013-07-22 08:12:00,
2013-07-22 00:17:00,62.8,46.3,29.93,North,0,0.0,-999.0,54,0.00,,,-99.99,,2013-07-22 08:17:00,
2013-07-22 00:22:00,63.2,46.5,29.93,North,0,0.0,-999.0,54,0.00,,,-99.99,,2013-07-22 08:22:00,
2013-07-22 00:27:00,62.9,46.5,29.93,North,0,0.0,-999.0,54,0.00,,,-99.99,,2013-07-22 08:27:00,
2013-07-22 00:32:00,63.2,46.8,29.93,North,0,0.0,-999.0,54,0.00,,,-99.99,,2013-07-22 08:32:00,
2013-07-22 00:37:00,63.2,46.4,29.93,North,0,0.0,-999.0,54,0.00,,,-99.99,,2013-07-22 08:37:00,
2013-07-22 00:42:00,62.8,46.8,29.93,North,0,0.0,-999.0,55,0.00,,,-99.99,,2013-07-22 08:42:00,
2013-07-22 00:47:00,62.8,46.8,29.93,North,0,0.0,-999.0,55,0.00,,,-99.99,,2013-07-22 08:47:00,
2013-07-22 00:52:00,62.9,47.0,29.93,North,0,0.0,-999.0,56,0.00,,,-99.99,,2013-07-22 08:52:00,
2013-07-22 00:57:00,62.8,46.7,29.93,North,0,0.0,-999.0,55,0.00,,,-99.99,,2013-07-22 08:57:00,
2013-07-22 01:02:00,62.9,46.8,29.92,North,0,0.0,-999.0,55,0.00,,,-99.99,,2013-07-22 09:02:00,
2013-07-22 01:07:00,62.8,46.6,29.92,North,0,0.0,-999.0,55,0.00,,,-99.99,,2013-07-22 09:07:00,
2013-07-22 01:12:00,63.0,46.7,29.92,North,0,0.0,-999.0,55,0.00,,,-99.99,,2013-07-22 09:12:00,
2013-07-22 01:17:00,62.7,46.4,29.92,North,0,0.0,-999.0,55,0.00,,,-99.99,,2013-07-22 09:17:00,
2013-07-22 01:22:00,62.7,46.5,29.92,North,0,0.0,-999.0,55,0.00,,,-99.99,,2013-07-22 09:22:00,
2013-07-22 01:27:00,62.9,46.5,29.92,North,0,0.0,-999.0,54,0.00,,,-99.99,,2013-07-22 09:27:00,
2013-07-22 01:32:00,63.0,46.4,29.92,North,0,0.0,-999.0,54,0.00,,,-99.99,,2013-07-22 09:32:00,
2013-07-22 01:37:00,63.0,46.4,29.92,North,0,0.0,-999.0,54,0.00,,,-99.99,,2013-07-22 09:37:00,
2013-07-22 01:42:00,62.9,46.4,29.92,North,0,0.0,-999.0,54,0.00,,,-99.99,,2013-07-22 09:42:00,
2013-07-22 01:47:00,62.9,46.6,29.92,North,0,0.0,-999.0,55,0.00,,,-99.99,,2013-07-22 09:47:00,
2013-07-22 01:52:00,63.1,46.7,29.92,North,0,0.0,-999.0,55,0.00,,,-99.99,,2013-07-22 09:52:00,
2013-07-22 01:57:00,63.2,46.4,29.92,North,0,0.0,-999.0,54,0.00,,,-99.99,,2013-07-22 09:57:00,
2013-07-22 02:03:00,62.9,46.5,29.92,North,0,0.0,-999.0,55,0.00,,,-99.99,,2013-07-22 10:03:00,
2013-07-22 02:08:00,62.7,46.6,29.92,North,0,0.0,-999.0,55,0.00,,,-99.99,,2013-07-22 10:08:00,
2013-07-22 02:13:00,62.7,46.6,29.92,North,0,0.0,-999.0,55,0.00,,,-99.99,,2013-07-22 10:13:00,
2013-07-22 02:18:00,62.9,46.8,29.92,North,0,0.0,-999.0,55,0.00,,,-99.99,,2013-07-22 10:18:00,
2013-07-22 02:23:00,63.0,46.7,29.92,North,0,0.0,-999.0,55,0.00,,,-99.99,,2013-07-22 10:23:00,
2013-07-22 02:28:00,62.9,46.7,29.92,North,0,0.0,-999.0,55,0.00,,,-99.99,,2013-07-22 10:28:00,
2013-07-22 02:33:00,62.6,46.7,29.92,North,0,0.0,-999.0,55,0.00,,,-99.99,,2013-07-22 10:33:00,
2013-07-22 02:38:00,62.5,46.7,29.92,North,0,0.0,-999.0,56,0.00,,,-99.99,,2013-07-22 10:38:00,
2013-07-22 02:43:00,62.7,46.4,29.92,North,0,0.0,-999.0,55,0.00,,,-99.99,,2013-07-22 10:43:00,
2013-07-22 02:48:00,62.6,46.8,29.92,North,0,0.0,-999.0,56,0.00,,,-99.99,,2013-07-22 10:48:00,
2013-07-22 02:53:00,62.7,46.7,29.92,North,0,0.0,-999.0,55,0.00,,,-99.99,,2013-07-22 10:53:00,
2013-07-22 02:58:00,62.7,46.7,29.92,North,0,0.0,-999.0,55,0.00,,,-99.99,,2013-07-22 10:58:00,
2013-07-22 03:03:00,62.7,46.6,29.92,North,0,0.0,-999.0,55,0.00,,,-99.99,,2013-07-22 11:03:00,
2013-07-22 03:08:00,62.5,46.6,29.92,North,0,0.0,-999.0,55,0.00,,,-99.99,,2013-07-22 11:08:00,
2013-07-22 03:13:00,62.7,46.6,29.92,North,0,0.0,-999.0,55,0.00,,,-99.99,,2013-07-22 11:13:00,
2013-07-22 03:18:00,62.7,46.4,29.92,North,0,0.0,-999.0,55,0.00,,,-99.99,,2013-07-22 11:18:00,
2013-07-22 03:23:00,62.8,46.6,29.92,North,0,0.0,-999.0,55,0.00,,,-99.99,,2013-07-22 11:23:00,
2013-07-22 03:28:00,62.6,46.6,29.92,North,0,0.0,-999.0,55,0.00,,,-99.99,,2013-07-22 11:28:00,
2013-07-22 03:33:00,62.9,46.4,29.92,North,0,0.0,-999.0,54,0.00,,,-99.99,,2013-07-22 11:33:00,
2013-07-22 03:38:00,62.6,46.4,29.92,North,0,0.0,-999.0,55,0.00,,,-99.99,,2013-07-22 11:38:00,
2013-07-22 03:43:00,63.0,46.4,29.92,North,0,0.0,-999.0,54,0.00,,,-99.99,,2013-07-22 11:43:00,
2013-07-22 03:48:00,62.7,46.5,29.92,North,0,0.0,-999.0,55,0.00,,,-99.99,,2013-07-22 11:48:00,
2013-07-22 03:53:00,62.9,46.6,29.92,North,0,0.0,-999.0,55,0.00,,,-99.99,,2013-07-22 11:53:00,
2013-07-22 03:58:00,62.5,46.7,29.92,North,0,0.0,-999.0,56,0.00,,,-99.99,,2013-07-22 11:58:00,
2013-07-22 04:03:00,62.4,46.4,29.91,North,0,0.0,-999.0,55,0.00,,,-99.99,,2013-07-22 12:03:00,
2013-07-22 04:08:00,62.7,46.3,29.91,North,0,0.0,-999.0,54,0.00,,,-99.99,,2013-07-22 12:08:00,
2013-07-22 04:13:00,62.5,46.2,29.91,North,0,0.0,-999.0,55,0.00,,,-99.99,,2013-07-22 12:13:00,
2013-07-22 04:18:00,62.5,46.1,29.91,North,0,0.0,-999.0,54,0.00,,,-99.99,,2013-07-22 12:18:00,
2013-07-22 04:23:00,62.8,46.5,29.91,North,0,0.0,-999.0,55,0.00,,,-99.99,,2013-07-22 12:23:00,
2013-07-22 04:28:00,62.2,46.2,29.91,North,0,0.0,-999.0,55,0.00,,,-99.99,,2013-07-22 12:28:00,
2013-07-22 04:33:00,62.0,46.2,29.91,North,0,0.0,-999.0,56,0.00,,,-99.99,,2013-07-22 12:33:00,
2013-07-22 04:38:00,62.3,46.2,29.91,North,0,0.0,-999.0,55,0.00,,,-99.99,,2013-07-22 12:38:00,
2013-07-22 04:43:00,62.4,46.2,29.91,North,0,0.0,-999.0,55,0.00,,,-99.99,,2013-07-22 12:43:00,
2013-07-22 04:48:00,62.3,46.1,29.91,North,0,0.0,-999.0,55,0.00,,,-99.99,,2013-07-22 12:48:00,
2013-07-22 04:53:00,62.1,46.3,29.91,North,0,0.0,-999.0,56,0.00,,,-99.99,,2013-07-22 12:53:00,
2013-07-22 04:58:00,61.8,46.3,29.91,North,0,0.0,-999.0,56,0.00,,,-99.99,,2013-07-22 12:58:00,
2013-07-22 05:03:00,61.9,46.3,29.91,North,0,0.0,-999.0,56,0.00,,,-99.99,,2013-07-22 13:03:00,
2013-07-22 05:08:00,61.6,46.4,29.91,North,0,0.0,-999.0,57,0.00,,,-99.99,,2013-07-22 13:08:00,
2013-07-22 05:13:00,61.5,46.3,29.91,North,0,0.0,-999.0,57,0.00,,,-99.99,,2013-07-22 13:13:00,
2013-07-22 05:18:00,61.6,46.3,29.91,North,0,0.0,-999.0,57,0.00,,,-99.99,,2013-07-22 13:18:00,
2013-07-22 05:23:00,61.5,46.0,29.91,North,0,0.0,-999.0,56,0.00,,,-99.99,,2013-07-22 13:23:00,
2013-07-22 05:28:00,61.5,45.7,29.91,North,0,0.0,-999.0,55,0.00,,,-99.99,,2013-07-22 13:28:00,
2013-07-22 05:33:00,61.6,46.3,29.91,North,0,0.0,-999.0,57,0.00,,,-99.99,,2013-07-22 13:33:00,
2013-07-22 05:38:00,61.6,46.3,29.91,North,0,0.0,-999.0,56,0.00,,,-99.99,,2013-07-22 13:38:00,
2013-07-22 05:43:00,61.9,46.6,29.91,North,0,0.0,-999.0,57,0.00,,,-99.99,,2013-07-22 13:43:00,
2013-07-22 05:48:00,62.1,46.5,29.91,North,0,0.0,-999.0,56,0.00,,,-99.99,,2013-07-22 13:48:00,
2013-07-22 05:53:00,62.0,46.4,29.91,North,0,0.0,-999.0,56,0.00,,,-99.99,,2013-07-22 13:53:00,
2013-07-22 05:58:00,61.9,46.6,29.91,North,0,0.0,-999.0,57,0.00,,,-99.99,,2013-07-22 13:58:00,
2013-07-22 06:03:00,61.8,46.4,29.91,North,0,0.0,-999.0,56,0.00,,,-99.99,,2013-07-22 14:03:00,
2013-07-22 06:08:00,61.9,46.6,29.91,North,0,0.0,-999.0,57,0.00,,,-99.99,,2013-07-22 14:08:00,
2013-07-22 06:13:00,61.8,46.6,29.91,North,0,0.0,-999.0,57,0.00,,,-99.99,,2013-07-22 14:13:00,
2013-07-22 06:18:00,61.9,46.5,29.91,North,0,0.0,-999.0,56,0.00,,,-99.99,,2013-07-22 14:18:00,
2013-07-22 06:25:00,62.2,46.6,29.91,North,0,0.0,-999.0,56,0.00,,,-99.99,,2013-07-22 14:25:00,
2013-07-22 06:30:00,62.5,46.6,29.91,North,0,0.0,-999.0,55,0.00,,,-99.99,,2013-07-22 14:30:00,
2013-07-22 06:35:00,62.3,46.4,29.91,North,0,0.0,-999.0,55,0.00,,,-99.99,,2013-07-22 14:35:00,
2013-07-22 06:40:00,62.5,46.5,29.91,North,0,0.0,-999.0,55,0.00,,,-99.99,,2013-07-22 14:40:00,
2013-07-22 06:46:00,63.2,46.4,29.91,North,0,0.0,-999.0,54,0.00,,,-99.99,,2013-07-22 14:46:00,
2013-07-22 06:51:00,63.8,47.1,29.91,North,0,0.0,-999.0,54,0.00,,,-99.99,,2013-07-22 14:51:00,
2013-07-22 06:56:00,63.3,46.9,29.91,North,0,0.0,-999.0,54,0.00,,,-99.99,,2013-07-22 14:56:00,
2013-07-22 07:01:00,63.7,46.8,29.90,North,0,0.0,-999.0,53,0.00,,,-99.99,,2013-07-22 15:01:00,
2013-07-22 07:06:00,64.2,47.2,29.90,North,0,0.0,-999.0,53,0.00,,,-99.99,,2013-07-22 15:06:00,
2013-07-22 07:11:00,64.3,47.2,29.90,North,0,0.0,-999.0,53,0.00,,,-99.99,,2013-07-22 15:11:00,
2013-07-22 07:16:00,64.2,46.9,29.90,North,0,0.0,-999.0,53,0.00,,,-99.99,,2013-07-22 15:16:00,
2013-07-22 07:21:00,64.9,46.9,29.90,North,0,0.0,-999.0,52,0.00,,,-99.99,,2013-07-22 15:21:00,
2013-07-22 07:26:00,65.0,47.1,29.90,North,0,0.0,-999.0,52,0.00,,,-99.99,,2013-07-22 15:26:00,
2013-07-22 07:31:00,64.8,46.8,29.90,North,0,0.0,-999.0,51,0.00,,,-99.99,,2013-07-22 15:31:00,
2013-07-22 07:36:00,65.7,47.1,29.90,North,0,0.0,-999.0,50,0.00,,,-99.99,,2013-07-22 15:36:00,
2013-07-22 07:41:00,65.3,46.8,29.90,North,0,0.0,-999.0,51,0.00,,,-99.99,,2013-07-22 15:41:00,
2013-07-22 07:46:00,65.9,47.1,29.90,North,0,0.0,-999.0,50,0.00,,,-99.99,,2013-07-22 15:46:00,
2013-07-22 07:51:00,66.1,47.1,29.90,North,0,0.0,-999.0,50,0.00,,,-99.99,,2013-07-22 15:51:00,
2013-07-22 07:56:00,65.9,46.7,29.90,North,0,0.0,-999.0,49,0.00,,,-99.99,,2013-07-22 15:56:00,
2013-07-22 08:01:00,65.7,46.4,29.93,North,0,0.0,-999.0,49,0.00,,,-99.99,,2013-07-22 16:01:00,
2013-07-22 08:06:00,66.2,47.4,29.93,North,0,0.0,-999.0,50,0.00,,,-99.99,,2013-07-22 16:06:00,
2013-07-22 08:11:00,66.0,47.3,29.93,North,0,0.0,-999.0,50,0.00,,,-99.99,,2013-07-22 16:11:00,
2013-07-22 08:16:00,66.4,47.3,29.93,North,0,0.0,-999.0,50,0.00,,,-99.99,,2013-07-22 16:16:00,
2013-07-22 08:21:00,67.0,47.1,29.93,North,0,0.0,-999.0,48,0.00,,,-99.99,,2013-07-22 16:21:00,
2013-07-22 08:26:00,67.1,47.1,29.93,North,0,0.0,-999.0,48,0.00,,,-99.99,,2013-07-22 16:26:00,
2013-07-22 08:31:00,67.3,46.9,29.93,North,0,0.0,-999.0,47,0.00,,,-99.99,,2013-07-22 16:31:00,
2013-07-22 08:36:00,67.3,47.3,29.93,North,0,0.0,-999.0,48,0.00,,,-99.99,,2013-07-22 16:36:00,
2013-07-22 08:41:00,67.5,46.4,29.93,North,0,0.0,-999.0,46,0.00,,,-99.99,,2013-07-22 16:41:00,
2013-07-22 08:46:00,68.0,46.9,29.93,North,0,0.0,-999.0,46,0.00,,,-99.99,,2013-07-22 16:46:00,
2013-07-22 08:51:00,67.8,46.5,29.93,North,0,0.0,-999.0,46,0.00,,,-99.99,,2013-07-22 16:51:00,
2013-07-22 08:56:00,69.0,46.2,29.93,North,0,0.0,-999.0,44,0.00,,,-99.99,,2013-07-22 16:56:00,
2013-07-22 09:01:00,68.4,46.0,29.93,North,0,0.0,-999.0,44,0.00,,,-99.99,,2013-07-22 17:01:00,
2013-07-22 09:06:00,68.7,46.6,29.93,North,0,0.0,-999.0,45,0.00,,,-99.99,,2013-07-22 17:06:00,
2013-07-22 09:11:00,68.5,47.2,29.93,North,0,0.0,-999.0,46,0.00,,,-99.99,,2013-07-22 17:11:00,
2013-07-22 09:16:00,69.1,47.2,29.93,North,0,0.0,-999.0,45,0.00,,,-99.99,,2013-07-22 17:16:00,
2013-07-22 09:21:00,68.6,46.4,29.93,North,0,0.0,-999.0,44,0.00,,,-99.99,,2013-07-22 17:21:00,
2013-07-22 09:26:00,68.9,47.2,29.93,North,0,0.0,-999.0,45,0.00,,,-99.99,,2013-07-22 17:26:00,
2013-07-22 09:31:00,69.1,47.3,29.93,North,0,0.0,-999.0,45,0.00,,,-99.99,,2013-07-22 17:31:00,
2013-07-22 09:36:00,69.6,47.3,29.93,North,0,0.0,-999.0,44,0.00,,,-99.99,,2013-07-22 17:36:00,
2013-07-22 09:41:00,69.7,47.2,29.93,North,0,0.0,-999.0,44,0.00,,,-99.99,,2013-07-22 17:41:00,
2013-07-22 09:46:00,69.7,47.4,29.93,North,0,0.0,-999.0,44,0.00,,,-99.99,,2013-07-22 17:46:00,
2013-07-22 09:51:00,69.5,46.7,29.93,North,0,0.0,-999.0,43,0.00,,,-99.99,,2013-07-22 17:51:00,
2013-07-22 09:56:00,69.8,47.4,29.93,North,0,0.0,-999.0,44,0.00,,,-99.99,,2013-07-22 17:56:00,
2013-07-22 10:01:00,70.3,47.3,29.95,North,0,0.0,-999.0,43,0.00,,,-99.99,,2013-07-22 18:01:00,
2013-07-22 10:06:00,70.8,47.8,29.95,North,0,0.0,-999.0,43,0.00,,,-99.99,,2013-07-22 18:06:00,
2013-07-22 10:11:00,70.6,47.1,29.95,North,0,0.0,-999.0,43,0.00,,,-99.99,,2013-07-22 18:11:00,
2013-07-22 10:17:00,70.3,47.4,29.95,North,0,0.0,-999.0,43,0.00,,,-99.99,,2013-07-22 18:17:00,
2013-07-22 10:22:00,70.5,46.5,29.95,North,0,0.0,-999.0,42,0.00,,,-99.99,,2013-07-22 18:22:00,
2013-07-22 10:30:00,70.8,48.3,29.95,North,0,0.0,-999.0,44,0.00,,,-99.99,,2013-07-22 18:30:00,
2013-07-22 10:35:00,70.7,47.5,29.95,North,0,0.0,-999.0,43,0.00,,,-99.99,,2013-07-22 18:35:00,
2013-07-22 10:40:00,70.9,47.7,29.95,North,0,0.0,-999.0,43,0.00,,,-99.99,,2013-07-22 18:40:00,
2013-07-22 10:47:00,71.1,48.0,29.95,North,0,0.0,-999.0,43,0.00,,,-99.99,,2013-07-22 18:47:00,
2013-07-22 10:52:00,71.1,46.8,29.95,North,0,0.0,-999.0,41,0.00,,,-99.99,,2013-07-22 18:52:00,
2013-07-22 10:57:00,72.1,47.9,29.95,North,0,0.0,-999.0,42,0.00,,,-99.99,,2013-07-22 18:57:00,
2013-07-22 11:02:00,72.1,46.6,29.95,North,0,0.0,-999.0,40,0.00,,,-99.99,,2013-07-22 19:02:00,
2013-07-22 11:07:00,72.5,47.1,29.95,North,0,0.0,-999.0,40,0.00,,,-99.99,,2013-07-22 19:07:00,
2013-07-22 11:12:00,72.5,46.5,29.95,North,0,0.0,-999.0,39,0.00,,,-99.99,,2013-07-22 19:12:00,
2013-07-22 11:17:00,72.1,45.4,29.95,North,0,0.0,-999.0,38,0.00,,,-99.99,,2013-07-22 19:17:00,
2013-07-22 11:22:00,72.8,44.5,29.95,North,0,0.0,-999.0,36,0.00,,,-99.99,,2013-07-22 19:22:00,
2013-07-22 11:29:00,72.7,45.6,29.95,North,0,0.0,-999.0,37,0.00,,,-99.99,,2013-07-22 19:29:00,
2013-07-22 11:35:00,72.7,45.1,29.95,North,0,0.0,-999.0,37,0.00,,,-99.99,,2013-07-22 19:35:00,
2013-07-22 11:40:00,73.4,43.4,29.95,North,0,0.0,-999.0,34,0.00,,,-99.99,,2013-07-22 19:40:00,
2013-07-22 11:45:00,73.0,44.8,29.95,North,0,0.0,-999.0,36,0.00,,,-99.99,,2013-07-22 19:45:00,
2013-07-22 11:52:00,72.5,44.4,29.95,North,0,0.0,-999.0,36,0.00,,,-99.99,,2013-07-22 19:52:00,
2013-07-22 11:58:00,73.2,44.5,29.95,North,0,0.0,-999.0,35,0.00,,,-99.99,,2013-07-22 19:58:00,
2013-07-22 12:04:00,72.6,44.7,29.95,North,0,0.0,-999.0,36,0.00,,,-99.99,,2013-07-22 20:04:00,
2013-07-22 12:09:00,73.1,44.1,29.95,North,0,0.0,-999.0,35,0.00,,,-99.99,,2013-07-22 20:09:00,
2013-07-22 12:14:00,72.8,45.0,29.95,North,0,0.0,-999.0,36,0.00,,,-99.99,,2013-07-22 20:14:00,
2013-07-22 12:16:00,73.2,45.4,29.95,North,0,0.0,-999.0,36,0.00,,,-99.99,,2013-07-22 20:16:00,
2013-07-22 12:17:00,73.0,44.6,29.95,North,0,0.0,-999.0,36,0.00,,,-99.99,,2013-07-22 20:17:00,
2013-07-22 12:18:00,73.2,45.4,29.95,North,0,0.0,-999.0,37,0.00,,,-99.99,,2013-07-22 20:18:00,
2013-07-22 12:19:00,73.4,45.4,29.95,North,0,0.0,-999.0,36,0.00,,,-99.99,,2013-07-22 20:19:00,
2013-07-22 12:24:00,73.5,44.3,29.95,North,0,0.0,-999.0,35,0.00,,,-99.99,,2013-07-22 20:24:00,
2013-07-22 12:29:00,73.1,45.0,29.95,North,0,0.0,-999.0,36,0.00,,,-99.99,,2013-07-22 20:29:00,
2013-07-22 12:31:00,73.1,45.2,29.95,North,0,0.0,-999.0,36,0.00,,,-99.99,,2013-07-22 20:31:00,
2013-07-22 12:36:00,73.2,45.1,29.95,North,0,0.0,-999.0,36,0.00,,,-99.99,,2013-07-22 20:36:00,
2013-07-22 12:41:00,73.5,44.0,29.95,North,0,0.0,-999.0,34,0.00,,,-99.99,,2013-07-22 20:41:00,
2013-07-22 12:43:00,73.8,43.7,29.95,North,0,0.0,-999.0,33,0.00,,,-99.99,,2013-07-22 20:43:00,
2013-07-22 12:48:00,73.8,44.5,29.95,North,0,0.0,-999.0,35,0.00,,,-99.99,,2013-07-22 20:48:00,
2013-07-22 12:53:00,73.3,45.1,29.95,North,0,0.0,-999.0,36,0.00,,,-99.99,,2013-07-22 20:53:00,
2013-07-22 12:58:00,73.9,44.8,29.95,North,0,0.0,-999.0,35,0.00,,,-99.99,,2013-07-22 20:58:00,
2013-07-22 13:03:00,73.5,44.5,29.96,North,0,0.0,-999.0,35,0.00,,,-99.99,,2013-07-22 21:03:00,
2013-07-22 13:08:00,74.0,43.4,29.96,North,0,0.0,-999.0,33,0.00,,,-99.99,,2013-07-22 21:08:00,
2013-07-22 13:13:00,74.2,44.6,29.96,North,0,0.0,-999.0,34,0.00,,,-99.99,,2013-07-22 21:13:00,
2013-07-22 13:18:00,74.2,44.2,29.96,North,0,0.0,-999.0,34,0.00,,,-99.99,,2013-07-22 21:18:00,
2013-07-22 13:23:00,74.8,44.4,29.96,North,0,0.0,-999.0,33,0.00,,,-99.99,,2013-07-22 21:23:00,
2013-07-22 13:29:00,74.0,44.2,29.96,North,0,0.0,-999.0,34,0.00,,,-99.99,,2013-07-22 21:29:00,
2013-07-22 13:34:00,74.9,44.1,29.96,North,0,0.0,-999.0,33,0.00,,,-99.99,,2013-07-22 21:34:00,
2013-07-22 13:39:00,74.7,43.9,29.96,North,0,0.0,-999.0,33,0.00,,,-99.99,,2013-07-22 21:39:00,
2013-07-22 13:44:00,74.3,44.2,29.96,North,0,0.0,-999.0,34,0.00,,,-99.99,,2013-07-22 21:44:00,
2013-07-22 13:49:00,74.6,44.2,29.96,North,0,0.0,-999.0,33,0.00,,,-99.99,,2013-07-22 21:49:00,
2013-07-22 13:55:00,74.9,43.9,29.96,North,0,0.0,-999.0,33,0.00,,,-99.99,,2013-07-22 21:55:00,
2013-07-22 14:00:00,74.9,44.0,29.97,North,0,0.0,-999.0,33,0.00,,,-99.99,,2013-07-22 22:00:00,
2013-07-22 14:05:00,74.9,43.1,29.97,North,0,0.0,-999.0,32,0.00,,,-99.99,,2013-07-22 22:05:00,
2013-07-22 14:10:00,74.8,43.2,29.97,North,0,0.0,-999.0,32,0.00,,,-99.99,,2013-07-22 22:10:00,
2013-07-22 14:15:00,75.4,44.2,29.97,North,0,0.0,-999.0,32,0.00,,,-99.99,,2013-07-22 22:15:00,
2013-07-22 14:20:00,75.4,43.3,29.97,North,0,0.0,-999.0,31,0.00,,,-99.99,,2013-07-22 22:20:00,
2013-07-22 14:25:00,75.6,44.0,29.97,North,0,0.0,-999.0,32,0.00,,,-99.99,,2013-07-22 22:25:00,
2013-07-22 14:31:00,75.1,44.1,29.97,North,0,0.0,-999.0,32,0.00,,,-99.99,,2013-07-22 22:31:00,
2013-07-22 14:36:00,74.2,43.7,29.97,North,0,0.0,-999.0,33,0.00,,,-99.99,,2013-07-22 22:36:00,
2013-07-22 14:41:00,74.8,43.8,29.97,North,0,0.0,-999.0,33,0.00,,,-99.99,,2013-07-22 22:41:00,
2013-07-22 14:46:00,74.6,43.7,29.97,North,0,0.0,-999.0,33,0.00,,,-99.99,,2013-07-22 22:46:00,
2013-07-22 14:51:00,74.4,43.5,29.97,North,0,0.0,-999.0,32,0.00,,,-99.99,,2013-07-22 22:51:00,
2013-07-22 14:56:00,73.7,43.3,29.97,North,0,0.0,-999.0,33,0.00,,,-99.99,,2013-07-22 22:56:00,
2013-07-22 15:01:00,72.8,43.5,29.98,North,0,0.0,-999.0,34,0.00,,,-99.99,,2013-07-22 23:01:00,
2013-07-22 15:06:00,72.6,43.8,29.98,North,0,0.0,-999.0,35,0.00,,,-99.99,,2013-07-22 23:06:00,
2013-07-22 15:11:00,73.4,44.9,29.98,North,0,0.0,-999.0,35,0.00,,,-99.99,,2013-07-22 23:11:00,
2013-07-22 15:16:00,73.8,44.8,29.98,North,0,0.0,-999.0,35,0.00,,,-99.99,,2013-07-22 23:16:00,
2013-07-22 15:21:00,73.7,43.9,29.98,North,0,0.0,-999.0,34,0.00,,,-99.99,,2013-07-22 23:21:00,
2013-07-22 15:26:00,74.3,44.7,29.98,North,0,0.0,-999.0,34,0.00,,,-99.99,,2013-07-22 23:26:00,
2013-07-22 15:31:00,73.9,43.8,29.98,North,0,0.0,-999.0,34,0.00,,,-99.99,,2013-07-22 23:31:00,
2013-07-22 15:36:00,73.7,43.6,29.98,North,0,0.0,-999.0,34,0.00,,,-99.99,,2013-07-22 23:36:00,
2013-07-22 15:41:00,73.4,43.8,29.98,North,0,0.0,-999.0,34,0.00,,,-99.99,,2013-07-22 23:41:00,
2013-07-22 15:46:00,73.6,43.9,29.98,North,0,0.0,-999.0,34,0.00,,,-99.99,,2013-07-22 23:46:00,
2013-07-22 15:51:00,73.7,43.6,29.98,North,0,0.0,-999.0,34,0.00,,,-99.99,,2013-07-22 23:51:00,
2013-07-22 15:56:00,73.7,44.5,29.98,North,0,0.0,-999.0,35,0.00,,,-99.99,,2013-07-22 23:56:00,
2013-07-22 16:01:00,73.5,43.9,30.00,North,0,0.0,-999.0,34,0.00,,,-99.99,,2013-07-23 00:01:00,
2013-07-22 16:06:00,74.1,43.7,30.00,North,0,0.0,-999.0,33,0.00,,,-99.99,,2013-07-23 00:06:00,
2013-07-22 16:11:00,73.7,43.8,30.00,North,0,0.0,-999.0,34,0.00,,,-99.99,,2013-07-23 00:11:00,
2013-07-22 16:16:00,73.8,44.1,30.00,North,0,0.0,-999.0,34,0.00,,,-99.99,,2013-07-23 00:16:00,
2013-07-22 16:21:00,72.7,43.9,30.00,North,0,0.0,-999.0,35,0.00,,,-99.99,,2013-07-23 00:21:00,
2013-07-22 16:26:00,72.1,44.1,30.00,North,0,0.0,-999.0,36,0.00,,,-99.99,,2013-07-23 00:26:00,
2013-07-22 16:31:00,72.2,44.6,30.00,North,0,0.0,-999.0,37,0.00,,,-99.99,,2013-07-23 00:31:00,
2013-07-22 16:36:00,72.5,44.9,30.00,North,0,0.0,-999.0,37,0.00,,,-99.99,,2013-07-23 00:36:00,
2013-07-22 16:41:00,71.9,45.0,30.00,North,0,0.0,-999.0,37,0.00,,,-99.99,,2013-07-23 00:41:00,
2013-07-22 16:46:00,71.8,45.5,30.00,North,0,0.0,-999.0,38,0.00,,,-99.99,,2013-07-23 00:46:00,
2013-07-22 16:51:00,72.1,45.2,30.00,North,0,0.0,-999.0,38,0.00,,,-99.99,,2013-07-23 00:51:00,
2013-07-22 16:56:00,72.1,45.3,30.00,North,0,0.0,-999.0,38,0.00,,,-99.99,,2013-07-23 00:56:00,
2013-07-22 17:01:00,72.3,45.5,29.99,North,0,0.0,-999.0,38,0.00,,,-99.99,,2013-07-23 01:01:00,
2013-07-22 17:06:00,72.5,45.1,29.99,North,0,0.0,-999.0,37,0.00,,,-99.99,,2013-07-23 01:06:00,
2013-07-22 17:11:00,72.7,45.2,29.99,North,0,0.0,-999.0,37,0.00,,,-99.99,,2013-07-23 01:11:00,
2013-07-22 17:16:00,72.6,45.1,29.99,North,0,0.0,-999.0,37,0.00,,,-99.99,,2013-07-23 01:16:00,
2013-07-22 17:21:00,71.3,46.0,29.99,North,0,0.0,-999.0,40,0.00,,,-99.99,,2013-07-23 01:21:00,
2013-07-22 17:26:00,71.6,46.2,29.99,North,0,0.0,-999.0,40,0.00,,,-99.99,,2013-07-23 01:26:00,
2013-07-22 17:31:00,71.6,46.1,29.99,North,0,0.0,-999.0,39,0.00,,,-99.99,,2013-07-23 01:31:00,
2013-07-22 17:36:00,71.8,45.7,29.99,North,0,0.0,-999.0,39,0.00,,,-99.99,,2013-07-23 01:36:00,
2013-07-22 17:41:00,70.7,46.2,29.99,North,0,0.0,-999.0,41,0.00,,,-99.99,,2013-07-23 01:41:00,
2013-07-22 17:46:00,70.6,46.7,29.99,North,0,0.0,-999.0,42,0.00,,,-99.99,,2013-07-23 01:46:00,
2013-07-22 17:51:00,71.1,46.3,29.99,North,0,0.0,-999.0,41,0.00,,,-99.99,,2013-07-23 01:51:00,
2013-07-22 17:56:00,71.4,45.3,29.99,North,0,0.0,-999.0,39,0.00,,,-99.99,,2013-07-23 01:56:00,
2013-07-22 18:01:00,71.6,45.4,30.00,North,0,0.0,-999.0,39,0.00,,,-99.99,,2013-07-23 02:01:00,
2013-07-22 18:06:00,71.8,44.9,30.00,North,0,0.0,-999.0,38,0.00,,,-99.99,,2013-07-23 02:06:00,
2013-07-22 18:11:00,72.2,45.2,30.00,North,0,0.0,-999.0,37,0.00,,,-99.99,,2013-07-23 02:11:00,
2013-07-22 18:16:00,72.2,44.8,30.00,North,0,0.0,-999.0,37,0.00,,,-99.99,,2013-07-23 02:16:00,
2013-07-22 18:21:00,71.8,44.1,30.00,North,0,0.0,-999.0,36,0.00,,,-99.99,,2013-07-23 02:21:00,
2013-07-22 18:26:00,72.0,44.9,30.00,North,0,0.0,-999.0,37,0.00,,,-99.99,,2013-07-23 02:26:00,
2013-07-22 18:31:00,72.0,44.0,30.00,North,0,0.0,-999.0,36,0.00,,,-99.99,,2013-07-23 02:31:00,
2013-07-22 18:36:00,70.7,45.6,30.00,North,0,0.0,-999.0,40,0.00,,,-99.99,,2013-07-23 02:36:00,
2013-07-22 18:41:00,69.4,45.5,30.00,North,0,0.0,-999.0,42,0.00,,,-99.99,,2013-07-23 02:41:00,
2013-07-22 18:46:00,68.5,45.7,30.00,North,0,0.0,-999.0,43,0.00,,,-99.99,,2013-07-23 02:46:00,
2013-07-22 18:51:00,67.8,46.3,30.00,North,0,0.0,-999.0,46,0.00,,,-99.99,,2013-07-23 02:51:00,
2013-07-22 18:56:00,67.5,46.4,30.00,North,0,0.0,-999.0,46,0.00,,,-99.99,,2013-07-23 02:56:00,
2013-07-22 19:01:00,68.1,46.6,30.01,North,0,0.0,-999.0,45,0.00,,,-99.99,,2013-07-23 03:01:00,
2013-07-22 19:06:00,67.9,46.7,30.01,North,0,0.0,-999.0,46,0.00,,,-99.99,,2013-07-23 03:06:00,
2013-07-22 19:11:00,68.1,45.5,30.01,North,0,0.0,-999.0,44,0.00,,,-99.99,,2013-07-23 03:11:00,
2013-07-22 19:16:00,68.3,44.9,30.01,North,0,0.0,-999.0,42,0.00,,,-99.99,,2013-07-23 03:16:00,
2013-07-22 19:21:00,68.1,45.2,30.01,North,0,0.0,-999.0,43,0.00,,,-99.99,,2013-07-23 03:21:00,
2013-07-22 19:26:00,68.1,45.2,30.01,North,0,0.0,-999.0,43,0.00,,,-99.99,,2013-07-23 03:26:00,
2013-07-22 19:31:00,68.1,44.7,30.01,North,0,0.0,-999.0,42,0.00,,,-99.99,,2013-07-23 03:31:00,
2013-07-22 19:36:00,68.4,44.6,30.01,North,0,0.0,-999.0,42,0.00,,,-99.99,,2013-07-23 03:36:00,
2013-07-22 19:41:00,68.3,44.5,30.01,North,0,0.0,-999.0,42,0.00,,,-99.99,,2013-07-23 03:41:00,
2013-07-22 19:46:00,68.4,45.1,30.01,North,0,0.0,-999.0,43,0.00,,,-99.99,,2013-07-23 03:46:00,
2013-07-22 19:51:00,68.1,44.7,30.01,North,0,0.0,-999.0,42,0.00,,,-99.99,,2013-07-23 03:51:00,
2013-07-22 19:56:00,67.5,45.8,30.01,North,0,0.0,-999.0,45,0.00,,,-99.99,,2013-07-23 03:56:00,
2013-07-22 20:01:00,66.5,45.7,30.03,North,0,0.0,-999.0,47,0.00,,,-99.99,,2013-07-23 04:01:00,
2013-07-22 20:02:00,66.4,45.7,30.03,North,0,0.0,-999.0,47,0.00,,,-99.99,,2013-07-23 04:02:00,
2013-07-22 20:03:00,66.4,45.4,30.03,North,0,0.0,-999.0,46,0.00,,,-99.99,,2013-07-23 04:03:00,
2013-07-22 20:04:00,66.3,45.7,30.03,North,0,0.0,-999.0,47,0.00,,,-99.99,,2013-07-23 04:04:00,
2013-07-22 20:07:00,65.8,45.9,30.03,North,0,0.0,-999.0,48,0.00,,,-99.99,,2013-07-23 04:07:00,
2013-07-22 20:12:00,65.2,46.2,30.03,North,0,0.0,-999.0,50,0.00,,,-99.99,,2013-07-23 04:12:00,
2013-07-22 20:17:00,64.4,46.1,30.03,North,0,0.0,-999.0,51,0.00,,,-99.99,,2013-07-23 04:17:00,
2013-07-22 20:22:00,64.5,46.3,30.03,North,0,0.0,-999.0,51,0.00,,,-99.99,,2013-07-23 04:22:00,
2013-07-22 20:27:00,64.2,45.9,30.03,North,0,0.0,-999.0,51,0.00,,,-99.99,,2013-07-23 04:27:00,
2013-07-22 20:32:00,64.1,46.3,30.03,North,0,0.0,-999.0,52,0.00,,,-99.99,,2013-07-23 04:32:00,
2013-07-22 20:37:00,63.9,46.7,30.03,North,0,0.0,-999.0,53,0.00,,,-99.99,,2013-07-23 04:37:00,
2013-07-22 20:42:00,64.1,47.1,30.03,North,0,0.0,-999.0,53,0.00,,,-99.99,,2013-07-23 04:42:00,
2013-07-22 20:47:00,63.7,47.5,30.03,North,0,0.0,-999.0,55,0.00,,,-99.99,,2013-07-23 04:47:00,
2013-07-22 20:52:00,63.3,47.5,30.03,North,0,0.0,-999.0,56,0.00,,,-99.99,,2013-07-23 04:52:00,
2013-07-22 20:57:00,62.8,47.1,30.03,North,0,0.0,-999.0,56,0.00,,,-99.99,,2013-07-23 04:57:00,
2013-07-22 21:02:00,62.7,47.3,30.02,North,0,0.0,-999.0,57,0.00,,,-99.99,,2013-07-23 05:02:00,
2013-07-22 21:07:00,62.6,47.4,30.02,North,0,0.0,-999.0,57,0.00,,,-99.99,,2013-07-23 05:07:00,
2013-07-22 21:12:00,62.4,47.6,30.02,North,0,0.0,-999.0,58,0.00,,,-99.99,,2013-07-23 05:12:00,
2013-07-22 21:17:00,62.8,47.9,30.02,North,0,0.0,-999.0,58,0.00,,,-99.99,,2013-07-23 05:17:00,
2013-07-22 21:22:00,62.5,47.9,30.02,North,0,0.0,-999.0,58,0.00,,,-99.99,,2013-07-23 05:22:00,
2013-07-22 21:27:00,62.4,47.9,30.02,North,0,0.0,-999.0,58,0.00,,,-99.99,,2013-07-23 05:27:00,
2013-07-22 21:32:00,62.1,47.7,30.02,North,0,0.0,-999.0,59,0.00,,,-99.99,,2013-07-23 05:32:00,
2013-07-22 21:37:00,61.8,47.6,30.02,North,0,0.0,-999.0,59,0.00,,,-99.99,,2013-07-23 05:37:00,
2013-07-22 21:42:00,61.7,47.8,30.02,North,0,0.0,-999.0,60,0.00,,,-99.99,,2013-07-23 05:42:00,
2013-07-22 21:47:00,61.7,48.0,30.02,North,0,0.0,-999.0,60,0.00,,,-99.99,,2013-07-23 05:47:00,
2013-07-22 21:52:00,61.0,48.5,30.02,North,0,0.0,-999.0,63,0.00,,,-99.99,,2013-07-23 05:52:00,
2013-07-22 21:57:00,61.2,48.7,30.02,North,0,0.0,-999.0,63,0.00,,,-99.99,,2013-07-23 05:57:00,
2013-07-22 22:02:00,60.6,49.2,30.03,North,0,0.0,-999.0,65,0.00,,,-99.99,,2013-07-23 06:02:00,
2013-07-22 22:07:00,59.9,49.0,30.03,North,0,0.0,-999.0,66,0.00,,,-99.99,,2013-07-23 06:07:00,
2013-07-22 22:12:00,59.6,49.3,30.03,North,0,0.0,-999.0,68,0.00,,,-99.99,,2013-07-23 06:12:00,
2013-07-22 22:17:00,59.3,49.2,30.03,North,0,0.0,-999.0,69,0.00,,,-99.99,,2013-07-23 06:17:00,
2013-07-22 22:22:00,58.8,49.0,30.03,North,0,0.0,-999.0,69,0.00,,,-99.99,,2013-07-23 06:22:00,
2013-07-22 22:27:00,58.3,48.8,30.03,North,0,0.0,-999.0,70,0.00,,,-99.99,,2013-07-23 06:27:00,
2013-07-22 22:32:00,57.9,48.5,30.03,North,0,0.0,-999.0,70,0.00,,,-99.99,,2013-07-23 06:32:00,
2013-07-22 22:37:00,57.6,48.3,30.03,North,0,0.0,-999.0,71,0.00,,,-99.99,,2013-07-23 06:37:00,
2013-07-22 22:42:00,57.4,48.3,30.03,North,0,0.0,-999.0,71,0.00,,,-99.99,,2013-07-23 06:42:00,
2013-07-22 22:47:00,57.3,48.2,30.03,North,0,0.0,-999.0,71,0.00,,,-99.99,,2013-07-23 06:47:00,
2013-07-22 22:52:00,57.1,48.1,30.03,North,0,0.0,-999.0,71,0.00,,,-99.99,,2013-07-23 06:52:00,
2013-07-22 22:57:00,56.9,48.1,30.03,North,0,0.0,-999.0,72,0.00,,,-99.99,,2013-07-23 06:57:00,
2013-07-22 23:02:00,56.8,48.0,30.03,North,0,0.0,-999.0,72,0.00,,,-99.99,,2013-07-23 07:02:00,
2013-07-22 23:07:00,56.6,47.9,30.03,North,0,0.0,-999.0,72,0.00,,,-99.99,,2013-07-23 07:07:00,
2013-07-22 23:12:00,56.5,47.9,30.03,North,0,0.0,-999.0,72,0.00,,,-99.99,,2013-07-23 07:12:00,
2013-07-22 23:17:00,56.2,47.7,30.03,North,0,0.0,-999.0,73,0.00,,,-99.99,,2013-07-23 07:17:00,
2013-07-22 23:22:00,56.1,47.7,30.03,North,0,0.0,-999.0,73,0.00,,,-99.99,,2013-07-23 07:22:00,
2013-07-22 23:27:00,56.3,47.7,30.03,North,0,0.0,-999.0,72,0.00,,,-99.99,,2013-07-23 07:27:00,
2013-07-22 23:32:00,56.3,47.6,30.03,North,0,0.0,-999.0,72,0.00,,,-99.99,,2013-07-23 07:32:00,
2013-07-22 23:37:00,56.3,47.6,30.03,North,0,0.0,-999.0,72,0.00,,,-99.99,,2013-07-23 07:37:00,
2013-07-22 23:42:00,56.3,47.9,30.03,North,0,0.0,-999.0,73,0.00,,,-99.99,,2013-07-23 07:42:00,
2013-07-22 23:47:00,56.4,48.0,30.03,North,0,0.0,-999.0,73,0.00,,,-99.99,,2013-07-23 07:47:00,
2013-07-22 23:52:00,56.2,47.8,30.03,North,0,0.0,-999.0,73,0.00,,,-99.99,,2013-07-23 07:52:00,
2013-07-22 23:57:00,56.3,47.9,30.03,North,0,0.0,-999.0,73,0.00,,,-99.99,,2013-07-23 07:57:00,